Location: Winnipeg
(49.8830°N, 97.1670°W)
Time: 04:24:58
(UTC-05:00)

Envisat - Pass Details

Date: 10 March 2024
Orbit: 762 x 764 km, 98.3° (Epoch: 21 April)

Event Time Altitude Azimuth Distance (km) Brightness Sun altitude
Rises 04:41:15 0° 17° (NNE) 3,242 7.0 -30.1°
Reaches altitude 10° 04:43:37 10° 22° (NNE) 2,311 6.1 -29.7°
Maximum altitude 04:48:37 56° 100° (E) 904 3.4 -29.1°
Enters shadow 04:48:50 56° 111° (ESE) 908 3.4 -29.0°
